Change the Weather History Date:

Tuesday, January 31, 2012

  Actual Average Record
Temperature  
Mean Temperature 68 °F 58 °F  
Max Temperature 79 °F 68 °F 85 °F (2002)
Min Temperature 57 °F 48 °F 20 °F (1949)
Degree Days  
Heating Degree Days 0 8  
Month to date heating degree days 143 271  
Since 1 July heating degree days 456 627  
Cooling Degree Days 3 1  
Month to date cooling degree days 61 30  
Year to date cooling degree days 61 30  
Growing Degree Days 18 (Base 50)    
Moisture  
Dew Point 63 °F    
Average Humidity 84    
Maximum Humidity 100    
Minimum Humidity 67    
Precipitation  
Precipitation 0.06 in 0.04 in 1.58 in (1921)
Month to date precipitation 0.45 1.54  
Year to date precipitation 0.45 1.54  
Snow  
Snow 0.00 in - - ()
Month to date snowfall 0.0  
Since 1 July snowfall 0.0  
Snow Depth 0.00 in    
Sea Level Pressure  
Sea Level Pressure 30.09 in    
Wind  
Wind Speed 7 mph (SSE)    
Max Wind Speed 17 mph    
Max Gust Speed 20 mph    
Visibility 6 miles    
Events Fog , Rain    
T = Trace of Precipitation, MM = Missing Value Source: NWS Daily Summary

Daily Weather History Graph

Daily Weather History Graph

Search for Another Location

Airport or City:

Trip Planner

Search our weather history database for the weather conditions in past years. The results will help you decide how hot, cold, wet, or windy it might be!

Date:

Astronomy

Jan. 31, 2012 Rise Set
Actual Time 7:17 AM CST 6:09 PM CST
Civil Twilight 6:53 AM CST 6:34 PM CST
Nautical Twilight 6:24 AM CST 7:02 PM CST
Astronomical Twilight 5:57 AM CST 7:30 PM CST
Moon 12:04 PM CST (1/31) 1:04 AM CST (1/31)
Length of Visible Light 11h 41m
Length of Day
10h 52m
First Quarter, 55% of the Moon is Illuminated
Jan 31
First Quarter
Feb 7
Full
Feb 14
Last Quarter
Feb 21
New
Feb 29
First Quarter

Hourly Weather History & Observations

Time (CST) Temp. Dew Point Humidity Pressure Visibility Wind Dir Wind Speed Gust Speed Precip Events Conditions
12:26 AM 66.2 °F 62.6 °F 88% 30.13 in 6.0 mi South 11.5 mph - 0.05 in Rain Rain
12:33 AM 66.2 °F 64.4 °F 94% 30.13 in 9.0 mi SSW 8.1 mph - 0.06 in Rain Light Rain
12:51 AM 66.0 °F 64.0 °F 93% 30.12 in 10.0 mi South 5.8 mph - 0.06 in   Overcast
1:39 AM 64.4 °F 62.6 °F 94% 30.12 in 10.0 mi SSW 5.8 mph - N/A   Scattered Clouds
1:51 AM 64.9 °F 62.1 °F 90% 30.12 in 10.0 mi SSW 6.9 mph - N/A   Mostly Cloudy
2:04 AM 64.4 °F 62.6 °F 94% 30.12 in 10.0 mi South 6.9 mph - N/A   Mostly Cloudy
2:24 AM 64.4 °F 62.6 °F 94% 30.11 in 10.0 mi South 5.8 mph - N/A   Mostly Cloudy
2:51 AM 63.0 °F 61.0 °F 93% 30.10 in 6.0 mi SSW 3.5 mph - N/A   Partly Cloudy
2:58 AM 62.6 °F 60.8 °F 94% 30.10 in 2.0 mi SW 3.5 mph - N/A   Partly Cloudy
3:06 AM 62.6 °F 60.8 °F 94% 30.10 in 1.0 mi SW 3.5 mph - N/A   Partly Cloudy
3:22 AM 62.6 °F 60.8 °F 94% 30.10 in 0.5 mi Calm Calm - N/A Fog Fog
3:51 AM 61.0 °F 59.0 °F 93% 30.09 in 0.5 mi SSW 4.6 mph - N/A Fog Fog
4:51 AM 59.0 °F 57.9 °F 96% 30.09 in 0.5 mi South 3.5 mph - N/A Fog Fog
4:57 AM 59.0 °F 57.2 °F 94% 30.09 in 0.2 mi Calm Calm - N/A Fog Fog
5:20 AM 59.0 °F 57.2 °F 94% 30.09 in 0.5 mi Calm Calm - N/A Fog Fog
5:47 AM 57.2 °F 57.2 °F 100% 30.09 in 0.2 mi Calm Calm - N/A Fog Fog
5:51 AM 57.9 °F 57.9 °F 100% 30.09 in 0.2 mi Calm Calm - N/A Fog Fog
6:05 AM 57.2 °F 57.2 °F 100% 30.10 in 0.2 mi Calm Calm - N/A Fog Fog
6:13 AM 59.0 °F 57.2 °F 94% 30.10 in 0.5 mi Calm Calm - N/A Fog Fog
6:51 AM 59.0 °F 57.9 °F 96% 30.11 in 0.5 mi North 3.5 mph - N/A Fog Fog
7:28 AM 60.8 °F 60.8 °F 100% 30.12 in 2.0 mi Calm Calm - N/A   Overcast
7:51 AM 61.0 °F 60.1 °F 97% 30.12 in 3.0 mi Calm Calm - N/A   Mostly Cloudy
8:15 AM 62.6 °F 60.8 °F 94% 30.13 in 6.0 mi Calm Calm - N/A   Overcast
8:40 AM 62.6 °F 60.8 °F 94% 30.13 in 7.0 mi Calm Calm - N/A   Mostly Cloudy
8:51 AM 64.0 °F 62.1 °F 93% 30.13 in 5.0 mi Calm Calm - N/A   Mostly Cloudy
9:51 AM 68.0 °F 64.0 °F 87% 30.14 in 7.0 mi SSE 3.5 mph - N/A   Mostly Cloudy
10:51 AM 71.1 °F 66.0 °F 84% 30.14 in 10.0 mi SSE 9.2 mph - N/A   Mostly Cloudy
11:02 AM 71.6 °F 66.2 °F 83% 30.14 in 10.0 mi South 6.9 mph - N/A   Overcast
11:32 AM 73.4 °F 66.2 °F 78% 30.13 in 10.0 mi SSE 8.1 mph - N/A   Overcast
11:51 AM 73.0 °F 66.9 °F 81% 30.12 in 10.0 mi SSE 9.2 mph - N/A   Overcast
12:51 PM 73.0 °F 66.9 °F 81% 30.09 in 10.0 mi South 11.5 mph - 0.00 in Rain Light Rain
1:27 PM 75.2 °F 68.0 °F 78% 30.06 in 10.0 mi South 11.5 mph - 0.00 in   Mostly Cloudy
1:51 PM 75.9 °F 68.0 °F 76% 30.04 in 10.0 mi SSE 13.8 mph - 0.00 in   Mostly Cloudy
2:51 PM 79.0 °F 66.9 °F 66% 30.02 in 10.0 mi South 12.7 mph - N/A   Mostly Cloudy
3:51 PM 79.0 °F 66.0 °F 64% 30.01 in 10.0 mi SSE 12.7 mph - N/A   Scattered Clouds
4:51 PM 77.0 °F 66.0 °F 69% 30.01 in 10.0 mi SSE 13.8 mph - N/A   Scattered Clouds
5:51 PM 72.0 °F 66.0 °F 81% 30.03 in 10.0 mi SE 10.4 mph - N/A   Partly Cloudy
6:51 PM 70.0 °F 66.0 °F 87% 30.04 in 10.0 mi ESE 8.1 mph - N/A   Partly Cloudy
7:11 PM 69.8 °F 66.2 °F 88% 30.05 in 10.0 mi ESE 8.1 mph - N/A   Mostly Cloudy
7:16 PM 69.8 °F 66.2 °F 88% 30.05 in 10.0 mi ESE 8.1 mph - N/A   Scattered Clouds
7:32 PM 69.8 °F 66.2 °F 88% 30.06 in 10.0 mi ESE 5.8 mph - N/A   Mostly Cloudy
7:51 PM 69.1 °F 66.0 °F 90% 30.06 in 9.0 mi ESE 8.1 mph - N/A   Overcast
8:51 PM 69.1 °F 66.0 °F 90% 30.07 in 7.0 mi East 5.8 mph - N/A   Overcast
9:51 PM 68.0 °F 66.0 °F 93% 30.07 in 4.0 mi East 4.6 mph - N/A   Mostly Cloudy
10:14 PM 68.0 °F 66.2 °F 94% 30.08 in 3.0 mi East 5.8 mph - N/A   Overcast
10:30 PM 68.0 °F 66.2 °F 94% 30.08 in 2.5 mi East 4.6 mph - N/A   Overcast
10:51 PM 70.0 °F 68.0 °F 93% 30.07 in 2.5 mi SE 10.4 mph - N/A   Overcast
11:27 PM 69.8 °F 68.0 °F 94% 30.07 in 0.5 mi SSE 13.8 mph - N/A Fog Fog
11:51 PM 69.1 °F 68.0 °F 96% 30.07 in 0.2 mi SSE 10.4 mph - N/A Fog Fog